| time (UTC) | temp C | wind direction | speed KPH | gust KPH | rain 1hr cm | rain 24hr cm | rain mn cm | humidity % | barometer mb |
| 20260508071745 | 27 | 0.0 | 0.0 | 0.00 | 0.00 | 0.00 | 1014.1 | ||
| 20260508065744 | 29 | 0.0 | 0.0 | 0.00 | 0.00 | 0.00 | 1013.8 | ||
| 20260508063744 | 28 | 0.0 | 0.0 | 0.00 | 0.00 | 0.00 | 1013.6 | ||
| 20260508061745 | 26 | 0.0 | 0.0 | 0.00 | 0.00 | 0.00 | 1013.7 | ||
| 20260508055743 | 25 | 0.0 | 0.0 | 0.00 | 0.00 | 0.00 | 1013.6 | ||
| 20260508053743 | 23 | 0.0 | 0.0 | 0.00 | 0.00 | 0.00 | 1011.7 | ||
| 20260508051743 | 23 | 0.0 | 0.0 | 0.00 | 0.00 | 0.00 | 1013.1 | ||
| 20260508045742 | 23 | 0.0 | 0.0 | 0.00 | 0.00 | 0.00 | 1013.0 | ||
| 20260508043742 | 23 | 0.0 | 0.0 | 0.00 | 0.00 | 0.00 | 1012.9 | ||
| 20260508041742 | 21 | 0.0 | 0.0 | 0.00 | 0.00 | 0.00 | 1010.1 | ||
| 20260508035742 | 23 | 0.0 | 0.0 | 0.00 | 0.00 | 0.00 | 1012.7 | ||
| 20260508033741 | 23 | 0.0 | 0.0 | 0.00 | 0.00 | 0.00 | 1012.5 | ||
| 20260508031741 | 21 | 0.0 | 0.0 | 0.00 | 0.00 | 0.00 | 1010.0 | ||
| 20260508025740 | 23 | 0.0 | 0.0 | 0.00 | 0.00 | 0.00 | 1012.6 | ||
| 20260508023740 | 23 | 0.0 | 0.0 | 0.00 | 0.00 | 0.00 | 1012.5 | ||
| 20260508021740 | 23 | 0.0 | 0.0 | 0.00 | 0.00 | 0.00 | 1012.6 | ||
| 20260508015739 | 25 | 0.0 | 0.0 | 0.00 | 0.00 | 0.00 | 1012.6 | ||
| 20260508013739 | 25 | 0.0 | 0.0 | 0.00 | 0.00 | 0.00 | 1012.5 | ||
| 20260508011738 | 25 | 0.0 | 0.0 | 0.00 | 0.00 | 0.00 | 1012.5 | ||
| 20260508005737 | 25 | 0.0 | 0.0 | 0.00 | 0.00 | 0.00 | 1012.6 | ||
| 20260508003737 | 26 | 0.0 | 0.0 | 0.00 | 0.00 | 0.00 | 1012.5 | ||
| 20260508001737 | 26 | 0.0 | 0.0 | 0.00 | 0.00 | 0.00 | 1012.1 | ||
| 20260507235736 | 26 | 0.0 | 0.0 | 0.00 | 0.00 | 0.00 | 1012.0 | ||
| 20260507233736 | 27 | 0.0 | 0.0 | 0.00 | 0.00 | 0.00 | 1011.7 | ||
| 20260507231736 | 27 | 0.0 | 0.0 | 0.00 | 0.00 | 0.00 | 1011.9 | ||
| 20260507225735 | 27 | 0.0 | 0.0 | 0.00 | 0.00 | 0.00 | 1012.0 | ||
| 20260507223735 | 27 | 0.0 | 0.0 | 0.00 | 0.00 | 0.00 | 1012.2 | ||
| 20260507221735 | 27 | 0.0 | 0.0 | 0.00 | 0.00 | 0.00 | 1012.2 | ||
| 20260507215735 | 27 | 0.0 | 0.0 | 0.00 | 0.00 | 0.00 | 1012.2 | ||
| 20260507213735 | 26 | 0.0 | 0.0 | 0.00 | 0.00 | 0.00 | 1012.3 | ||
| 20260507211734 | 27 | 0.0 | 0.0 | 0.00 | 0.00 | 0.00 | 1012.4 | ||
| 20260507205734 | 27 | 0.0 | 0.0 | 0.00 | 0.00 | 0.00 | 1012.4 | ||
| 20260507203733 | 27 | 0.0 | 0.0 | 0.00 | 0.00 | 0.00 | 1012.4 | ||
| 20260507201732 | 27 | 0.0 | 0.0 | 0.00 | 0.00 | 0.00 | 1012.3 | ||
| 20260507195732 | 28 | 0.0 | 0.0 | 0.00 | 0.00 | 0.00 | 1012.5 | ||
| 20260507193732 | 27 | 0.0 | 0.0 | 0.00 | 0.00 | 0.00 | 1012.5 | ||
| 20260507191732 | 27 | 0.0 | 0.0 | 0.00 | 0.00 | 0.00 | 1012.6 | ||
| 20260507185731 | 27 | 0.0 | 0.0 | 0.00 | 0.00 | 7.11 | 1012.4 | ||
| 20260507183731 | 27 | 0.0 | 0.0 | 0.00 | 0.00 | 7.11 | 1012.5 | ||
| 20260507181731 | 28 | 0.0 | 0.0 | 0.00 | 0.00 | 7.11 | 1012.3 | ||
| 20260507175730 | 29 | 0.0 | 0.0 | 0.00 | 0.00 | 7.11 | 1011.8 | ||
| 20260507173730 | 28 | 0.0 | 0.0 | 0.00 | 0.00 | 7.11 | 1011.5 | ||
| 20260507171729 | 28 | 0.0 | 0.0 | 0.00 | 0.00 | 7.11 | 1011.5 | ||
| 20260507165729 | 29 | 0.0 | 0.0 | 0.00 | 0.00 | 7.11 | 1011.4 | ||
| 20260507163729 | 29 | 0.0 | 0.0 | 0.00 | 0.00 | 7.11 | 1011.7 | ||
| 20260507161728 | 21 | 0.0 | 0.0 | 0.00 | 0.00 | 7.11 | 1012.3 | ||
| 20260507154115 | 23 | 0.0 | 0.0 | 0.00 | 0.00 | 0.00 | 1012.9 | ||
| 20260507152115 | 22 | 0.0 | 0.0 | 0.00 | 0.00 | 7.11 | 1013.3 | ||
| 20260507150115 | 22 | 0.0 | 0.0 | 0.00 | 0.00 | 7.11 | 1013.3 | ||
| 20260507144114 | 22 | 0.0 | 0.0 | 0.00 | 0.00 | 7.11 | 1013.3 | ||
| 20260507142114 | 22 | 0.0 | 0.0 | 0.00 | 0.00 | 7.11 | 1013.3 | ||
| 20260507140114 | 22 | 0.0 | 0.0 | 0.00 | 0.00 | 7.11 | 1013.2 | ||
| 20260507134113 | 22 | 0.0 | 0.0 | 0.00 | 0.00 | 7.11 | 1013.6 | ||
| 20260507132113 | 22 | 0.0 | 0.0 | 0.00 | 0.00 | 7.11 | 1013.1 | ||
| 20260507130113 | 22 | 0.0 | 0.0 | 0.00 | 0.00 | 7.11 | 1013.7 | ||
| 20260507124112 | 23 | 0.0 | 0.0 | 0.00 | 0.00 | 7.11 | 1013.8 | ||
| 20260507123316 | 25 | 0.0 | 0.0 | 0.00 | 0.00 | 7.11 | 1013.1 | ||
| 20260507123015 | 25 | 0.0 | 0.0 | 0.00 | 0.00 | 7.11 | 1013.1 | ||
| 20260507121319 | 23 | 0.0 | 0.0 | 0.00 | 0.00 | 7.11 | 1013.8 | ||
| 20260507120246 | 22 | 0.0 | 0.0 | 0.00 | 0.00 | 7.11 | 1014.0 | ||
| 20260507115555 | 22 | 0.0 | 0.0 | 0.00 | 0.00 | 7.11 | 1014.1 | ||
| 20260507113555 | 22 | 0.0 | 0.0 | 0.00 | 0.00 | 7.11 | 1014.1 | ||
| 20260507111554 | 22 | 0.0 | 0.0 | 0.00 | 0.00 | 7.11 | 1014.2 | ||
| 20260507111139 | 22 | 0.0 | 0.0 | 0.00 | 0.00 | 7.11 | 1014.2 | ||
| 20260507110803 | 23 | 0.0 | 0.0 | 0.00 | 0.00 | 7.11 | 1014.3 | ||
| 20260507103655 | 26 | 0.0 | 0.0 | 0.00 | 0.00 | 7.11 | 1013.7 | ||
| 20260507102844 | 26 | 0.0 | 0.0 | 0.00 | 0.00 | 7.11 | 1014.4 | ||
| 20260507102505 | 23 | 0.0 | 0.0 | 0.00 | 0.00 | 7.11 | 1014.6 | ||
| 20260507102041 | 23 | 0.0 | 0.0 | 0.00 | 0.00 | 7.11 | 1014.6 | ||
| 20260507095124 | 29 | 0.0 | 0.0 | 0.00 | 0.00 | 7.11 | 1013.7 | ||
| 20260507095015 | 29 | 0.0 | 0.0 | 0.00 | 0.00 | 7.11 | 1013.6 | ||
| 20260507094921 | 29 | 0.0 | 0.0 | 0.00 | 0.00 | 7.11 | 1013.6 | ||
| 20260507094832 | 28 | 0.0 | 0.0 | 0.00 | 0.00 | 7.11 | 1013.6 | ||
| 20260507094619 | 28 | 0.0 | 0.0 | 0.00 | 0.00 | 7.11 | 1013.6 | ||
| 20260507081518 | 26 | 0.0 | 0.0 | 0.00 | 0.00 | 7.11 | 1013.7 | ||
| 20260507080714 | 28 | 0.0 | 0.0 | 0.00 | 0.00 | 7.11 | 1013.6 | ||
| 20260507080449 | 29 | 0.0 | 0.0 | 0.00 | 0.00 | 7.11 | 1013.5 | ||
| 20260507080341 | 29 | 0.0 | 0.0 | 0.00 | 0.00 | 7.11 | 1013.6 | ||
| 20260507080213 | 29 | 0.0 | 0.0 | 0.00 | 0.00 | 7.11 | 1013.6 | ||
| 20260507080124 | 29 | 0.0 | 0.0 | 0.00 | 0.00 | 7.11 | 1013.6 | ||
| 20260507080036 | 28 | 0.0 | 0.0 | 0.00 | 0.00 | 7.11 | 1013.6 | ||
| 20260507075946 | 28 | 0.0 | 0.0 | 0.00 | 0.00 | 7.11 | 1013.6 | ||
| 20260507075857 | 28 | 0.0 | 0.0 | 0.00 | 0.00 | 7.11 | 1013.6 | ||
| 20260507075749 | 28 | 0.0 | 0.0 | 0.00 | 0.00 | 7.11 | 1013.6 | ||
| 20260507075630 | 28 | 0.0 | 0.0 | 0.00 | 0.00 | 7.11 | 1013.6 | ||
| 20260507073630 | 27 | 0.0 | 0.0 | 0.00 | 0.00 | 7.11 | 1013.9 | ||
| 20260507073535 | 27 | 0.0 | 0.0 | 0.00 | 0.00 | 7.11 | 1013.9 |